Regional Weather Roundup
Issued by NWS State College, PA

Home | Current Version | Previous Version | Text Only | Print | Product List | Glossary On
Versions: 1 2 3 4 5 6 7 8 9 10 11 12 13 14 15 16 17 18 19 20 21 22 23 24 25 26 27 28 29 30 31 32 33 34 35 36 37 38 39 40 41 42 43 44 45 46 47 48 49 50
000
ASUS41 KCTP 210703
RWRCTP

REGIONAL WEATHER ROUNDUP
NATIONAL WEATHER SERVICE STATE COLLEGE PA
200 AM EST SUN DEC 21 2014

Note: "fair" indicates few or no clouds below 12,000 feet with no
significant weather and/or obstructions to visibility.

* = STATION THAT DOES NOT REPORT PRECIPITATION /E.G. RAIN...SNOW...ETC/
    THUNDER OR FOG.

PAZ002>004-007>009-013>016-020>023-029>032-210800-
WESTERN PENNSYLVANIA

CITY           SKY/WX    TMP DP  RH WIND       PRES   REMARKS
ERIE           CLOUDY    30  21  69 S5        30.27R
MEADVILLE      CLOUDY    27  21  78 CALM      30.23R
FRANKLIN*      CLOUDY    27  19  74 CALM      30.24S
NEW CASTLE       N/A     28  23  81 CALM      30.27R
BEAVER COUNTY  NOT AVBL
BUTLER*        MOCLDY    25  21  86 CALM      30.26S
PITTSBURGH INT CLOUDY    27  22  81 CALM      30.25S
PITTSBURGH     CLOUDY    28  18  66 CALM      30.24S
INDIANA*       CLOUDY    27  23  86 CALM      30.27F
LATROBE        CLOUDY    27  25  93 CALM      30.27S
WASHINGTON CO* NOT AVBL
$$

PAZ004>006-010>012-017>019-024>028-033>037-041-042-045-046-049>053-210800-
CENTRAL PENNSYLVANIA

CITY           SKY/WX    TMP DP  RH WIND       PRES   REMARKS
BRADFORD       CLOUDY    23  20  88 W3        30.19R
DUBOIS         CLOUDY    25  21  85 CALM      30.20S
CLEARFIELD     CLOUDY    26  20  77 CALM      30.23R
JOHNSTOWN      CLOUDY    23  19  85 CALM      30.18R
ALTOONA        CLOUDY    27  22  81 CALM      30.23R
STATE COLLEGE  CLOUDY    27  23  84 CALM      30.24S
WILLIAMSPORT   CLOUDY    31  20  63 W6        30.27S
SELINSGROVE    CLOUDY    31  22  69 W5        30.29R
FT INDIANTOWN  CLOUDY    29  24  82 SW2       30.29R
CAPITAL CITY   CLOUDY    29  22  75 W3        30.30R
HARRISBURG     CLOUDY    29  22  75 NW6       30.30R
YORK           PTCLDY    26  22  84 CALM      30.29R
$$

PAZ038>040-043-044-047-048-054-055-060>062-067>071-210800-
EASTERN PENNSYLVANIA

CITY           SKY/WX    TMP DP  RH WIND       PRES   REMARKS
SCRANTON       CLOUDY    29  20  69 N3        30.24R
MOUNT POCONO   CLOUDY    24  19  81 NW3       30.18R
ALLENTOWN      CLOUDY    31  22  69 CALM      30.28R
QUAKERTOWN*    CLOUDY    30  25  80 CALM      30.28S
READING        CLOUDY    31  23  72 CALM      30.28S
LANCASTER      CLOUDY    29  23  78 W5        30.28S
COATESVILLE    PTSUNNY   30  27  86 CALM      30.27S
POTTSTOWN      CLOUDY    31  20  63 N3        30.30R
BLUE BELL      CLOUDY    32  28  86 CALM      30.28R
DOYLESTOWN     CLOUDY    29  22  75 CALM      30.28R
WILLOW GROVE   NOT AVBL
NORTH PHILA    CLOUDY    34  20  56 N3        30.31R
PHILADELPHIA   CLOUDY    33  23  66 CALM      30.31R
$$


USA.gov is the U.S. government's official web portal to all federal, state and local government web resources and services.